Вернуться в каталог

FENGYUN 1C DEB

LostPO
NORAD 38785·DEBRIS·🇨🇳 China

Запущен May 10, 1999 с Taiyuan Satellite Launch Center

Loading…

Ближайшие Пролёты (ближайшие 24 часа)

TLE

УстаревшееSource: Space-Track

Эпоха: Feb 15, 2023, 17:51 UTC

1 38785U 99025ETZ 23046.74425456  .00010937  00000-0  59453-2 0  9996
2 38785  98.0227  38.8515 0205707 219.9543 138.6334 14.02221569464773

Отслеживайте FENGYUN 1C DEB в реальном времени с AllMySat

Download on the App Store